sat.trackr.live / text

‹ back to catalog

INNOSAT 3 (RS92S0)

NORAD 64894 · 2025-155U

PAYLOAD ACTIVE UNKNOWN

§ Identity

Operator
Country
MALA
Launch date
2025-07-25
Launch site
VOSTO
Launch vehicle
Mass (kg)
RCS (m²)

Purposes: comms

External: N2YO · Heavens-Above · Gunter

§ Orbital elements

Epoch: 2026-05-25T03:50:53.783808Z

Period
93.38 min
Inclination
97.4478°
Eccentricity
0.0001822
Mean motion
15.42006435 rev/d
Perigee alt
438.9 km
Apogee alt
441.4 km
Semi-major
6,818.3 km
B*
8.7914e-4
RAAN
116.1373°
Arg perigee
241.2625°
Mean anomaly
118.8439°
Rev number
7,741

§ Raw data

INNOSAT 3 (RS92S0)1 64894U 25155U   26145.16034472  .00037528  00000+0  87914-3 0  99902 64894  97.4478 116.1373 0001822 241.2625 118.8439 15.42006435 77412

JSON: /api/v1/satellites/64894 · /tle

For live sub-satellite position, see the globe view (requires WebGL).

§ Visibility from observer

Set your observer location to see the next 7 days of passes ≥ 10°. The values pass through the URL so the page stays shareable.

No JS? Fill the form by hand. The geolocation button needs JavaScript.

§ Radio — SatNOGS DB

ModeDescriptionDownlinkUplink
GFSK Mode U - GFSK9k6 - AX.25 Beacon and Ham Payload (Geoscan framing) 436.436 MHz

1 transmitter · refreshed weekly from db.satnogs.org